#timestamp,LO_Frequency,Hit,StdDev 
1524283215.7,286047002.7,N
1524283235.6,286047000.0,N
1524283255.4,286047000.3,N
1524283275.2,286047000.0,N
1524283295.1,286047000.9,N
1524283296.0,286047000.9,N
1524283315.8,286047000.7,N
1524283335.6,286046998.1,N
1524283355.5,286047000.0,N
1524283375.3,286046999.7,N
1524283395.2,286047002.3,N
1524283415.9,286047002.1,N
1524283435.7,286047001.5,N
1524283455.6,286047002.0,N
1524283475.4,286047000.0,N
1524283495.2,286047001.1,N
1524283515.1,286047001.0,N
1524283516.0,286047001.0,N
1524283535.8,286047000.8,N
1524283555.7,286047000.6,N
1524283575.5,286047000.7,N
1524283595.3,286047002.4,N
1524283615.2,286047001.9,N
1524283635.0,286047001.7,N
1524283635.9,286047001.7,N
1524283655.8,286047001.9,N
1524283675.6,286047001.7,N
1524283695.4,286047001.7,N
1524283715.3,286047003.1,Y
1524283735.1,286047004.4,P
1524283755.8,286047004.0,N
1524283775.7,286047003.5,N
1524283795.5,286047000.2,N
1524283815.4,286047000.6,N
1524283835.2,286046999.8,N
1524283855.0,286047002.4,N
1524283855.9,286047002.4,N
1524283875.8,286047002.5,N
1524283895.6,286047001.7,N
1524283915.4,286047002.8,N
1524283935.3,286047002.7,N
1524283955.1,286046999.8,N
1524283975.9,286047002.8,N
1524283995.7,286047001.5,N
1524284015.5,286047004.4,Y
1524284035.4,286047001.1,P
1524284055.2,286047000.8,N
1524284075.1,286046998.1,P
1524284076.0,286046998.1,N
1524284095.8,286047002.7,N
1524284115.6,286047000.9,N
1524284135.5,286047000.4,N
1524284155.3,286047001.2,N
1524284175.1,286046999.4,N
1524284195.9,286046998.4,N
1524284215.7,286046998.5,N
1524284235.6,286047000.9,N
1524284255.4,286046999.7,N
1524284275.2,286047000.7,N
1524284295.1,286046998.5,N
1524284296.0,286046998.5,N
1524284315.8,286046999.6,N
1524284335.6,286046996.9,N
1524284355.5,286046996.6,N
1524284375.3,286046996.5,N
1524284395.2,286046996.6,N
1524284415.9,286046999.5,N
1524284435.7,286046996.9,N
1524284455.6,286046999.4,N
1524284475.4,286046998.1,N
1524284495.2,286046998.9,N
1524284515.1,286046998.5,N
1524284516.0,286046998.5,N
1524284535.8,286046998.6,N
1524284555.7,286046999.3,N
1524284575.5,286046997.2,N
1524284595.3,286046999.6,N
1524284615.2,286046997.1,N
1524284635.0,286046996.5,N
1524284635.9,286046996.5,N
1524284655.8,286046998.3,N
1524284675.6,286046999.3,N
1524284695.4,286046998.7,N
1524284715.3,286046998.6,N
1524284735.1,286046999.0,N
1524284755.8,286046998.3,N
1524284775.7,286046998.2,N
1524284795.5,286046998.3,N
1524284815.4,286046998.5,N
1524284835.2,286047000.7,N
1524284855.0,286047000.3,N
1524284855.9,286047000.3,N
1524284875.8,286047000.2,N
1524284895.6,286047002.4,N
1524284915.4,286047002.0,N
1524284935.3,286047002.1,N
1524284955.1,286047002.5,N
1524284975.9,286046999.7,N
1524284995.7,286047000.3,N
1524285015.5,286047002.6,N
1524285035.4,286047002.5,N
1524285055.2,286047002.0,N
1524285075.1,286047000.2,N
1524285076.0,286047000.2,N
1524285095.8,286047001.7,N
1524285115.6,286047002.0,N
1524285135.5,286046999.7,N
1524285155.3,286046999.7,N
1524285175.1,286047002.7,N
1524285195.9,286046999.9,N
1524285215.7,286047001.0,N
1524285235.6,286047000.0,N
1524285255.4,286047000.3,N
1524285275.2,286047001.6,N
1524285295.1,286047002.1,N
1524285296.0,286047002.1,N
1524285315.8,286047002.1,N
1524285335.6,286047002.8,N
1524285355.5,286047002.2,N
1524285375.3,286047001.6,N
1524285395.2,286047002.6,N
1524285415.9,286047002.2,N
1524285435.7,286047001.3,N
1524285455.6,286047001.8,N
1524285475.4,286047002.5,N
1524285495.2,286047002.2,N
1524285515.1,286046999.7,N
1524285516.0,286046999.7,N
1524285535.8,286047002.8,N
1524285555.7,286047002.5,N
1524285575.5,286047004.4,Y
1524285595.3,286046999.7,P
1524285615.2,286047002.8,P
1524285635.0,286047002.3,N
1524285635.9,286047002.3,N
1524285655.8,286047002.8,N
1524285675.6,286047000.9,N
1524285695.4,286047000.7,N
1524285715.3,286047000.7,N
1524285735.1,286046998.2,N
1524285755.8,286046998.2,N
1524285775.7,286047000.0,N
1524285795.5,286047001.1,N
1524285815.4,286046998.2,N
1524285835.2,286046999.4,N
1524285855.0,286046998.3,N
1524285855.9,286046998.3,N
1524285875.8,286047000.0,N
1524285895.6,286047000.7,N
1524285915.4,286047000.3,N
1524285935.3,286047000.3,N
1524285955.1,286046999.7,N
1524285975.9,286047000.6,N
1524285995.7,286046999.7,N
1524286015.5,286046998.1,N
1524286035.4,286047002.7,N
1524286055.2,286047000.7,N
1524286075.1,286046998.5,N
1524286076.0,286046998.5,N
1524286095.8,286046998.9,N
1524286115.6,286047000.7,N
1524286135.5,286046999.8,N
1524286155.3,286047000.2,N
1524286175.1,286047002.6,N
1524286195.9,286047000.2,N
1524286215.7,286047002.1,N
1524286235.6,286047000.6,N
1524286255.4,286047000.4,N
1524286275.2,286047000.1,N
1524286295.1,286046998.1,N
1524286296.0,286046998.1,N
1524286315.8,286047000.9,N
1524286335.6,286047002.7,N
1524286355.5,286047001.2,N
1524286375.3,286047000.0,N
1524286395.2,286047002.5,N
1524286415.9,286047002.0,N
1524286435.7,286047002.7,N
1524286455.6,286047002.7,N
1524286475.4,286047000.1,N
1524286495.2,286047001.0,N
1524286515.1,286046998.3,N
1524286516.0,286046998.3,N
1524286535.8,286047000.8,N
1524286555.7,286047000.4,N
1524286575.5,286046999.8,N
1524286595.3,286047002.2,N
1524286615.2,286047002.1,N
1524286635.0,286047001.7,N
1524286635.9,286047001.7,N
1524286655.8,286047002.6,N
1524286675.6,286047002.1,N
1524286695.4,286047002.8,N
1524286715.3,286047000.0,N
1524286735.1,286047000.0,N
1524286755.8,286047000.1,N
1524286775.7,286047001.2,N
1524286795.5,286047002.7,N
